Millington Regional Jetport Airport
KNQA : now visible

Airfield :











YOU CAN JOIN US ON...

 
LOGIN :

Register | Disclaimer

   EN    FR    IT 

 









Legend :    VFR   Marginal VFR   IFR   Intensive IFR   Very Intensive IFR
Visi :
Ceiling :
>= 8 km
>= 3000ft
5 to 8 km
1000 to 3000 ft
1500m to 5 km
500 to 1000 ft
800 to 1500m
200 to 500 ft
< 800m
< 200 ft
Symbols :   Thunderstorms  Fog  Heavy snow  Heavy precipitations  Wind > 20 kt






- Airport Elevation : 320 ft


KNQA - Millington Regional Jetport

CURRENT METAR :
  • 221150Z 00000KT 10SM CLR 07/07 A3013

EXPIRED METARs :
  • 221050Z 00000KT 10SM CLR 08/08 A3012
  • 221035Z AUTO 10SM CLR 08/08 A3011 RMK A01
  • 221015Z AUTO 10SM FEW019 08/08 A3011 RMK A01
  • 220955Z AUTO 4SM BR SCT019 08/08 A3011 RMK A01
  • 220935Z AUTO 10SM CLR 09/08 A3010 RMK A01

TAF N/A
KZME FIR / North America



MET'MAP, your aeronautical weather chart ! - Copyright ORBIFLY December 2007 - Disclaimer

ORBIFLY MET'MAP TEAM :

Programming & Development : Alexandra Zaïnal
Concept & original design : Baudouin d'Aumeries
Assistance for programming : Marc-Olivier Méhu
Technical & hardware support : Manuel Goepfert

Contact : metmap@orbifly.com




SOURCES & CREDITS :

   NOAA       Earth
Advisory